• In Lithuania
  • List of Countries
  • For 7 days
  • Water Temperature
  • Satellite Maps
  • Weather Map
  • Weather Widgets
  • user-avatar
    Login

    Hourly Weather Teplogorsk

    Today, 17 August, Friday

    Time Temperature Precipitation Wind Pressure Humidity
    00:00 +26°C° 0 mm 2 mps 748 mmHg 35%
    01:00 +26°C° 0 mm 2 mps 748 mmHg 36%
    02:00 +25°C° 0 mm 2 mps 748 mmHg 37%
    03:00 +25°C° 0 mm 2 mps 748 mmHg 38%
    04:00 +25°C° 0 mm 2 mps 748 mmHg 39%
    05:00 +24°C° 0 mm 2 mps 748 mmHg 41%
    06:00 +24°C° 0 mm 2 mps 749 mmHg 43%
    07:00 +26°C° 0 mm 2 mps 749 mmHg 39%
    08:00 +28°C° 0 mm 2 mps 749 mmHg 36%
    09:00 +30°C° 0 mm 2 mps 749 mmHg 32%
    10:00 +33°C° 0 mm 3 mps 749 mmHg 29%
    11:00 +34°C° 0 mm 3 mps 749 mmHg 25%
    12:00 +36°C° 0 mm 3 mps 749 mmHg 22%
    13:00 +36°C° 0 mm 4 mps 748 mmHg 22%
    14:00 +36°C° 0 mm 4 mps 748 mmHg 22%
    15:00 +36°C° 0 mm 4 mps 748 mmHg 22%
    16:00 +35°C° 0 mm 4 mps 748 mmHg 23%
    17:00 +35°C° 0 mm 4 mps 748 mmHg 25%
    18:00 +34°C° 0 mm 4 mps 748 mmHg 26%
    19:00 +32°C° 0 mm 4 mps 748 mmHg 31%
    20:00 +29°C° 0 mm 4 mps 748 mmHg 35%
    21:00 +28°C° 0 mm 3 mps 748 mmHg 39%
    22:00 +27°C° 0 mm 4 mps 748 mmHg 45%
    23:00 +26°C° 0 mm 4 mps 748 mmHg 52%

    Tomorrow, 18 August, Saturday

    Time Temperature Precipitation Wind Pressure Humidity
    00:00 +25°C° 0 mm 4 mps 748 mmHg 58%
    01:00 +23°C° 0 mm 4 mps 748 mmHg 64%
    02:00 +22°C° 0 mm 4 mps 748 mmHg 70%
    03:00 +21°C° 0 mm 3 mps 748 mmHg 75%
    04:00 +21°C° 0.1 mm 3 mps 748 mmHg 78%
    05:00 +20°C° 0.1 mm 4 mps 749 mmHg 80%
    06:00 +20°C° 0.1 mm 4 mps 749 mmHg 83%
    07:00 +22°C° 0 mm 4 mps 749 mmHg 77%
    08:00 +23°C° 0 mm 4 mps 749 mmHg 71%
    09:00 +26°C° 0 mm 4 mps 749 mmHg 65%
    10:00 +27°C° 0 mm 5 mps 749 mmHg 58%
    11:00 +29°C° 0 mm 5 mps 749 mmHg 51%
    12:00 +32°C° 0 mm 5 mps 749 mmHg 44%
    13:00 +32°C° 0 mm 5 mps 749 mmHg 42%
    14:00 +32°C° 0 mm 5 mps 749 mmHg 40%
    15:00 +32°C° 0 mm 5 mps 749 mmHg 38%
    16:00 +32°C° 0 mm 6 mps 749 mmHg 38%
    17:00 +30°C° 0 mm 6 mps 749 mmHg 39%
    18:00 +29°C° 0 mm 6 mps 749 mmHg 39%
    19:00 +28°C° 0 mm 6 mps 749 mmHg 41%
    20:00 +26°C° 0 mm 5 mps 750 mmHg 42%
    21:00 +25°C° 0 mm 5 mps 750 mmHg 44%
    22:00 +23°C° 0 mm 5 mps 750 mmHg 44%
    23:00 +22°C° 0 mm 5 mps 750 mmHg 44%

    Day after tomorrow, 19 August, Sunday

    Time Temperature Precipitation Wind Pressure Humidity
    00:00 +21°C° 0 mm 5 mps 750 mmHg 44%
    01:00 +20°C° 0 mm 4 mps 751 mmHg 46%
    02:00 +19°C° 0 mm 4 mps 751 mmHg 48%
    03:00 +18°C° 0 mm 4 mps 751 mmHg 51%
    04:00 +18°C° 0 mm 4 mps 751 mmHg 53%
    05:00 +17°C° 0 mm 4 mps 751 mmHg 55%
    06:00 +17°C° 0 mm 4 mps 751 mmHg 57%
    07:00 +19°C° 0 mm 5 mps 751 mmHg 51%
    08:00 +21°C° 0 mm 5 mps 752 mmHg 46%
    09:00 +22°C° 0 mm 6 mps 752 mmHg 40%
    10:00 +24°C° 0 mm 6 mps 752 mmHg 36%
    11:00 +26°C° 0 mm 6 mps 752 mmHg 33%
    12:00 +27°C° 0 mm 6 mps 751 mmHg 29%
    13:00 +28°C° 0 mm 5 mps 751 mmHg 27%
    14:00 +28°C° 0 mm 5 mps 751 mmHg 26%
    15:00 +29°C° 0 mm 5 mps 751 mmHg 24%
    16:00 +28°C° 0 mm 5 mps 751 mmHg 25%
    17:00 +28°C° 0 mm 5 mps 750 mmHg 26%
    18:00 +27°C° 0 mm 5 mps 750 mmHg 27%
    19:00 +25°C° 0 mm 4 mps 751 mmHg 31%
    20:00 +22°C° 0 mm 4 mps 751 mmHg 35%
    21:00 +20°C° 0 mm 3 mps 751 mmHg 38%
    22:00 +20°C° 0 mm 3 mps 751 mmHg 40%
    23:00 +19°C° 0 mm 3 mps 751 mmHg 43%

    20 August, Monday

    Time Temperature Precipitation Wind Pressure Humidity
    00:00 +18°C° 0 mm 3 mps 751 mmHg 45%
    01:00 +18°C° 0 mm 3 mps 751 mmHg 47%
    02:00 +17°C° 0 mm 3 mps 751 mmHg 48%
    03:00 +17°C° 0 mm 3 mps 751 mmHg 50%
    04:00 +16°C° 0 mm 3 mps 751 mmHg 51%
    05:00 +16°C° 0 mm 3 mps 751 mmHg 52%
    06:00 +16°C° 0 mm 3 mps 751 mmHg 53%
    07:00 +18°C° 0 mm 3 mps 751 mmHg 48%
    08:00 +20°C° 0 mm 3 mps 751 mmHg 42%
    09:00 +23°C° 0 mm 4 mps 751 mmHg 37%
    10:00 +25°C° 0 mm 4 mps 751 mmHg 33%
    11:00 +26°C° 0 mm 4 mps 751 mmHg 30%
    12:00 +27°C° 0 mm 4 mps 751 mmHg 26%
    13:00 +28°C° 0 mm 4 mps 751 mmHg 25%
    14:00 +29°C° 0 mm 4 mps 751 mmHg 23%
    15:00 +29°C° 0 mm 4 mps 750 mmHg 22%
    16:00 +29°C° 0 mm 4 mps 750 mmHg 22%
    17:00 +28°C° 0 mm 3 mps 750 mmHg 23%
    18:00 +28°C° 0 mm 3 mps 750 mmHg 24%
    19:00 +26°C° 0 mm 3 mps 750 mmHg 27%
    20:00 +24°C° 0 mm 2 mps 750 mmHg 30%
    21:00 +21°C° 0 mm 2 mps 751 mmHg 33%
    22:00 +20°C° 0 mm 2 mps 750 mmHg 35%
    23:00 +19°C° 0 mm 2 mps 750 mmHg 36%

    21 August, Tuesday

    Time Temperature Precipitation Wind Pressure Humidity
    00:00 +19°C° 0 mm 2 mps 750 mmHg 38%
    01:00 +18°C° 0 mm 2 mps 750 mmHg 39%
    02:00 +19°C° 0 mm 1 mps 750 mmHg 40%
    03:00 +18°C° 0 mm 1 mps 750 mmHg 42%
    04:00 +18°C° 0 mm 1 mps 750 mmHg 43%
    05:00 +18°C° 0 mm 1 mps 751 mmHg 44%
    06:00 +16°C° 0 mm 1 mps 751 mmHg 45%
    07:00 +20°C° 0 mm 1 mps 751 mmHg 41%
    08:00 +23°C° 0 mm 2 mps 751 mmHg 36%
    09:00 +25°C° 0 mm 2 mps 751 mmHg 31%
    10:00 +27°C° 0 mm 2 mps 751 mmHg 28%
    11:00 +29°C° 0 mm 1 mps 751 mmHg 24%
    12:00 +30°C° 0 mm 1 mps 751 mmHg 21%
    13:00 +31°C° 0 mm 1 mps 751 mmHg 20%
    14:00 +32°C° 0 mm 1 mps 751 mmHg 19%
    15:00 +32°C° 0 mm 1 mps 750 mmHg 18%
    16:00 +32°C° 0 mm 1 mps 750 mmHg 19%
    17:00 +31°C° 0 mm 1 mps 750 mmHg 20%
    18:00 +31°C° 0 mm 1 mps 750 mmHg 21%
    19:00 +29°C° 0 mm 1 mps 750 mmHg 23%
    20:00 +26°C° 0 mm 1 mps 750 mmHg 26%
    21:00 +24°C° 0 mm 1 mps 750 mmHg 28%
    22:00 +23°C° 0 mm 1 mps 750 mmHg 30%
    23:00 +23°C° 0 mm 1 mps 751 mmHg 31%

    22 August, Wednesday

    Time Temperature Precipitation Wind Pressure Humidity
    00:00 +22°C° 0 mm 1 mps 751 mmHg 33%
    01:00 +21°C° 0 mm 1 mps 751 mmHg 34%
    02:00 +21°C° 0 mm 1 mps 751 mmHg 36%
    03:00 +20°C° 0 mm 1 mps 751 mmHg 37%
    04:00 +20°C° 0 mm 1 mps 751 mmHg 38%
    05:00 +18°C° 0 mm 0 mps 751 mmHg 39%
    06:00 +18°C° 0 mm 0 mps 751 mmHg 40%
    07:00 +23°C° 0 mm 1 mps 751 mmHg 36%
    08:00 +25°C° 0 mm 1 mps 751 mmHg 31%
    09:00 +28°C° 0 mm 1 mps 752 mmHg 27%
    10:00 +29°C° 0 mm 1 mps 752 mmHg 25%
    11:00 +31°C° 0 mm 1 mps 751 mmHg 23%
    12:00 +32°C° 0 mm 1 mps 751 mmHg 22%
    13:00 +32°C° 0 mm 1 mps 751 mmHg 21%
    14:00 +34°C° 0 mm 2 mps 751 mmHg 21%
    15:00 +34°C° 0 mm 2 mps 751 mmHg 21%
    16:00 +34°C° 0 mm 2 mps 750 mmHg 22%
    17:00 +34°C° 0 mm 2 mps 750 mmHg 24%
    18:00 +32°C° 0 mm 2 mps 750 mmHg 25%
    19:00 +30°C° 0 mm 2 mps 750 mmHg 30%
    20:00 +28°C° 0 mm 2 mps 751 mmHg 34%
    21:00 +26°C° 0 mm 2 mps 751 mmHg 39%
    22:00 +25°C° 0 mm 2 mps 751 mmHg 43%
    23:00 +25°C° 0 mm 2 mps 751 mmHg 47%
    Show more